[[{"header":{"parameterUnit":"m.s-1","parameterCategory":1,"la1":30.2991,"la2":30.254,"lo1":-89.0895,"lo2":-89.0444,"dy":0.0017,"dx":0.0017,"nx":28,"ny":28,"refTime":"2023-11-11T09:00:00:Z","depth":0,"parameterNumber":2,"parameterNumberName":"U-component_of_WINDS"},"data":[0,0,0,0,0,0,0,0,0,0,0,0,0,0,0,0,0,0,0,0,0,0,0,0,0,0,0,0,0,0,0,0,0,0,0,0,0,0,0,0,0,0,0,0,0,0,0,0,0,0,0,0,0,0,0,0,0,0,-1.912,-1.912,0,-1.9079,-1.9079,-1.9079,-1.9003,-1.9002,-1.9,-1.8999,-1.896,-1.8961,-1.8961,0,0,0,0,0,0,0,0,0,0,0,0,0,-1.9136,-1.9136,-1.912,-1.912,-1.9119,-1.908,-1.9079,-1.9078,-1.9004,-1.9002,-1.9,-1.8998,-1.896,-1.8961,-1.8961,0,0,0,0,0,0,0,0,0,0,0,0,0,-1.9116,-1.9136,-1.912,-1.9077,-1.9073,-1.908,-1.9079,-1.9078,-1.9004,-1.9002,-1.9,-1.8998,-1.896,-1.8961,-1.8961,-1.9008,0,0,-1.8963,-1.8963,0,0,0,0,0,0,0,0,-1.9117,-1.9115,-1.9084,-1.908,-1.9075,-1.9044,-1.907,-1.9055,-1.9005,-1.903,-1.8999,-1.8996,-1.899,-1.8988,-1.8985,-1.9006,-1.9004,-1.8963,-1.8963,-1.8963,-1.8963,0,0,0,0,0,0,0,-1.9118,-1.9117,-1.9104,-1.9083,-1.9078,-1.9061,-1.9055,-1.9067,-1.9023,-1.9028,-1.9022,-1.9018,-1.8987,-1.8985,-1.8984,-1.9004,-1.8963,-1.8963,-1.8963,-1.8964,-1.9063,-1.9065,0,0,0,0,0,0,-1.9126,-1.9118,-1.9105,-1.9103,-1.9091,-1.9062,-1.9056,-1.9056,-1.9023,-1.9015,-1.902,-1.9015,-1.8985,-1.8983,-1.8982,-1.9037,-1.8963,-1.8964,-1.8964,-1.9061,-1.9064,-1.9066,0,0,0,0,0,0,-1.9126,-1.9125,-1.9107,-1.9109,-1.9105,-1.9064,-1.9065,-1.9057,-1.9054,-1.9017,-1.9009,-1.9026,-1.8984,-1.8982,-1.9002,-1.9034,-1.8964,-1.8964,-1.9058,-1.9062,-1.9065,-1.9145,0,0,0,0,0,0,-1.9127,-1.9126,-1.9143,-1.911,-1.9105,-1.9127,-1.9067,-1.9057,-1.9055,-1.9048,-1.902,-1.9013,-1.8982,-1.9002,-1.9003,-1.9034,-1.8965,-1.9055,-1.906,-1.9064,-1.9139,-1.9151,-1.916,0,0,0,0,0,-1.9128,-1.9167,-1.9144,-1.9143,-1.9125,-1.9129,-1.9127,-1.9089,-1.9058,-1.9075,-1.9051,-1.9014,-1.903,-1.9005,-1.9005,-1.9036,-1.9053,-1.9058,-1.9063,-1.9134,-1.9148,-1.916,0,0,0,0,0,0,-1.9205,-1.9162,-1.9136,-1.9165,-1.9151,-1.9116,-1.9137,-1.9104,-1.91,-1.9093,-1.9047,-1.9041,-1.9069,-1.9054,-1.9027,-1.9081,-1.9036,-1.9041,-1.909,-1.9103,-1.9113,-1.9117,-1.8965,0,0,0,0,0,-1.9225,-1.9231,-1.9193,-1.9223,-1.9217,-1.9178,-1.9178,-1.915,-1.9135,-1.9129,-1.9106,-1.9093,-1.9095,-1.9098,-1.9097,-1.9136,-1.913,-1.9158,-1.9168,-1.9177,-1.9183,-1.9205,-1.9217,-1.9083,-1.9083,-1.9083,0,0,-1.9268,-1.9245,-1.9251,-1.9238,-1.9224,-1.9232,-1.9174,-1.9185,-1.9191,-1.913,-1.9149,-1.9132,-1.9115,-1.9145,-1.9157,-1.9134,-1.9219,-1.9184,-1.9191,-1.9193,-1.9211,-1.9224,-1.9236,-1.9087,-1.9086,-1.9086,0,0,-1.935,-1.9332,-1.9355,-1.9342,-1.9322,-1.9296,-1.9302,-1.9271,-1.9258,-1.9276,-1.9231,-1.9238,-1.9242,-1.9232,-1.9227,-1.9306,-1.9273,-1.9307,-1.9364,-1.9385,-1.9395,-1.9405,-1.9435,-1.9446,-1.9313,-1.9313,-1.9313,0,-1.9405,-1.9415,-1.9372,-1.9386,-1.9382,-1.9327,-1.9351,-1.9341,-1.9322,-1.9321,-1.9295,-1.93,-1.9284,-1.9312,-1.9332,-1.9329,-1.9336,-1.9311,-1.9397,-1.9406,-1.9414,-1.9442,-1.9454,-1.9318,-1.9317,-1.9317,-1.9316,0,-1.9485,-1.9493,-1.9515,-1.9497,-1.9495,-1.9515,-1.9476,-1.948,-1.9452,-1.9429,-1.9449,-1.9427,-1.9423,-1.9427,-1.94,-1.9452,-1.9439,-1.9405,-1.9359,-1.9432,-1.9458,-1.9468,-1.9324,-1.9322,-1.9321,-1.932,0,0,-1.9616,-1.9574,-1.9583,-1.9575,-1.9548,-1.9554,-1.9571,-1.9566,-1.9571,-1.956,-1.9575,-1.9579,-1.9549,-1.9544,-1.9515,-1.9533,-1.96,-1.9498,-1.9497,-1.952,-1.9659,-1.9686,-1.9699,-1.9577,-1.9579,-1.958,-1.9661,0,-1.9694,-1.972,-1.9682,-1.9718,-1.9726,-1.9673,-1.9688,-1.9675,-1.9654,-1.9658,-1.9635,-1.9641,-1.9598,-1.9595,-1.9611,-1.9589,-1.9628,-1.9582,-1.9592,-1.9593,-1.9601,-1.9712,-1.974,-1.9817,-1.9671,-1.9672,-1.9673,0,-1.9788,-1.9781,-1.9818,-1.979,-1.9791,-1.9806,-1.9799,-1.9803,-1.9787,-1.977,-1.9765,-1.9731,-1.9747,-1.9701,-1.9725,-1.9694,-1.9696,-1.9686,-1.9688,-1.9689,-1.9639,-1.9719,-1.9841,-1.9854,-1.9689,-1.9687,-1.9686,0,-1.9883,-1.9882,-1.9904,-1.9899,-1.9866,-1.9878,-1.9865,-1.9846,-1.9846,-1.984,-1.984,-1.9836,-1.9834,-1.9833,-1.9799,-1.9768,-1.9828,-1.9778,-1.9816,-1.9818,-1.9833,-1.9833,-1.996,-1.983,-1.983,-1.983,-1.983,0,-1.9975,-2.0,-1.9946,-1.996,-1.9987,-1.9944,-1.9972,-1.9954,-1.9938,-1.9948,-1.9902,-1.9914,-1.9867,-1.9874,-1.9847,-1.9872,-1.9871,-1.986,-1.9853,-1.9865,-1.9867,-1.9867,-1.9862,-1.9833,-1.9832,-1.9832,-1.9831,0,-2.0086,-2.005,-2.0072,-2.0039,-2.0031,-2.0053,-2.0026,-2.0038,-2.0014,-2.0028,-2.0029,-1.9992,-1.9998,-1.9963,-1.9962,-1.9944,-1.9983,-1.9966,-1.9989,-1.9984,-2.0025,-2.0023,-2.0159,-2.0175,-2.0033,-2.0035,-2.0036,0,-2.0148,-2.0166,-2.0135,-2.0139,-2.0128,-2.0134,-2.0133,-2.0091,-2.0093,-2.0076,-2.0091,-2.0092,-2.0092,-2.0103,-2.0077,-2.0077,-2.0061,-2.0108,-2.006,-2.0073,-2.0064,-2.0065,-2.0067,-2.0119,-2.0121,-2.0122,-2.0123,0,-2.0263,-2.0245,-2.0245,-2.024,-2.0241,-2.0235,-2.0226,-2.0232,-2.0186,-2.019,-2.0195,-2.0194,-2.0194,-2.0197,-2.0191,-2.0179,-2.0145,-2.0138,-2.0147,-2.0162,-2.0175,-2.0171,-2.0019,-2.0136,-2.0135,-2.0134,-2.0133,-2.0133,-2.0353,-2.0367,-2.0348,-2.0351,-2.0339,-2.0332,-2.0343,-2.032,-2.0323,-2.0319,-2.0293,-2.0304,-2.0288,-2.0277,-2.0268,-2.0276,-2.0254,-2.0266,-2.027,-2.0275,-2.0283,-2.0172,-2.0275,-2.0274,-2.0274,-2.0274,-2.0273,0,-2.0468,-2.0453,-2.0455,-2.0445,-2.0447,-2.0412,-2.0401,-2.0406,-2.0415,-2.0403,-2.0403,-2.0409,-2.0412,-2.0386,-2.0386,-2.0398,-2.0382,-2.0399,-2.0399,-2.0398,-2.0302,-2.0295,-2.0412,-2.0412,-2.0412,-2.0412,-2.0412,-2.0412,-2.0528,-2.0551,-2.0531,-2.0549,-2.0533,-2.0542,-2.0539,-2.0533,-2.0523,-2.0532,-2.0534,-2.0516,-2.0499,-2.0497,-2.0499,-2.0491,-2.0495,-2.0518,-2.0505,-2.0417,-2.0404,-2.0391,-2.0385,-2.0518,-2.0518,-2.06,-2.0601,-2.0602]},{"header":{"parameterUnit":"m.s-1","parameterCategory":1,"la1":30.2991,"la2":30.254,"lo1":-89.0895,"lo2":-89.0444,"dy":0.0017,"dx":0.0017,"nx":28,"ny":28,"refTime":"2023-11-11T09:00:00:Z","depth":0,"parameterNumber":3,"parameterNumberName":"V-component_of_WINDS"},"data":[0,0,0,0,0,0,0,0,0,0,0,0,0,0,0,0,0,0,0,0,0,0,0,0,0,0,0,0,0,0,0,0,0,0,0,0,0,0,0,0,0,0,0,0,0,0,0,0,0,0,0,0,0,0,0,0,0,0,-4.5757,-4.5758,0,-4.5784,-4.5784,-4.5784,-4.5733,-4.5732,-4.573,-4.5728,-4.5752,-4.5754,-4.5756,0,0,0,0,0,0,0,0,0,0,0,0,0,-4.5659,-4.5661,-4.5757,-4.5758,-4.5758,-4.5783,-4.5784,-4.5784,-4.5734,-4.5732,-4.573,-4.5728,-4.5751,-4.5753,-4.5756,0,0,0,0,0,0,0,0,0,0,0,0,0,-4.5695,-4.5662,-4.5757,-4.5736,-4.5734,-4.5783,-4.5784,-4.5784,-4.5734,-4.5732,-4.5729,-4.5727,-4.575,-4.5753,-4.5756,-4.5827,0,0,-4.5766,-4.5768,0,0,0,0,0,0,0,0,-4.5693,-4.5699,-4.5739,-4.5737,-4.5736,-4.5753,-4.5758,-4.5798,-4.5735,-4.5734,-4.5728,-4.5725,-4.5754,-4.5757,-4.5767,-4.5828,-4.5829,-4.5767,-4.5769,-4.577,-4.5771,0,0,0,0,0,0,0,-4.5691,-4.5697,-4.5767,-4.5739,-4.5737,-4.5723,-4.5726,-4.5765,-4.5757,-4.5734,-4.573,-4.5734,-4.5752,-4.5764,-4.5767,-4.5829,-4.5767,-4.5769,-4.5771,-4.5773,-4.5948,-4.595,0,0,0,0,0,0,-4.5691,-4.5695,-4.5767,-4.5768,-4.5708,-4.5727,-4.573,-4.575,-4.5757,-4.5756,-4.5736,-4.5732,-4.5759,-4.5763,-4.5768,-4.585,-4.577,-4.5773,-4.5775,-4.5945,-4.5948,-4.5951,0,0,0,0,0,0,-4.5689,-4.5698,-4.5766,-4.5731,-4.5738,-4.5732,-4.5754,-4.5751,-4.5763,-4.5759,-4.5757,-4.575,-4.5758,-4.5763,-4.5812,-4.585,-4.5775,-4.5778,-4.5942,-4.5946,-4.595,-4.6015,0,0,0,0,0,0,-4.5687,-4.5698,-4.5725,-4.5732,-4.5741,-4.5811,-4.5757,-4.5754,-4.5769,-4.5763,-4.5771,-4.577,-4.5756,-4.5808,-4.5816,-4.5853,-4.578,-4.5939,-4.5944,-4.5949,-4.601,-4.6021,-4.6031,0,0,0,0,0,-4.5684,-4.5742,-4.5727,-4.5736,-4.5775,-4.5814,-4.5818,-4.5803,-4.5772,-4.5799,-4.5797,-4.5769,-4.5845,-4.5813,-4.5822,-4.5861,-4.5936,-4.5942,-4.5948,-4.6005,-4.6019,-4.6031,0,0,0,0,0,0,-4.5739,-4.5743,-4.5726,-4.5789,-4.5801,-4.5805,-4.5839,-4.5818,-4.5838,-4.5832,-4.5811,-4.5813,-4.5866,-4.5868,-4.5833,-4.5929,-4.5885,-4.5893,-4.5925,-4.5939,-4.5949,-4.5947,-4.5783,0,0,0,0,0,-4.5758,-4.5791,-4.5792,-4.5847,-4.5854,-4.5846,-4.5862,-4.5849,-4.586,-4.5865,-4.5866,-4.5877,-4.5903,-4.5921,-4.5945,-4.601,-4.601,-4.6041,-4.6051,-4.606,-4.6067,-4.6101,-4.6115,-4.5971,-4.5971,-4.5971,0,0,-4.5799,-4.5805,-4.5826,-4.5858,-4.5866,-4.5899,-4.585,-4.5887,-4.5911,-4.587,-4.5917,-4.5918,-4.5929,-4.5987,-4.6012,-4.599,-4.6107,-4.6068,-4.6075,-4.6077,-4.6109,-4.6122,-4.6134,-4.5975,-4.5975,-4.5974,0,0,-4.589,-4.5898,-4.5945,-4.5954,-4.5968,-4.5962,-4.5973,-4.598,-4.5979,-4.6027,-4.5997,-4.6024,-4.607,-4.6079,-4.6089,-4.6184,-4.6159,-4.6192,-4.6247,-4.628,-4.6291,-4.6301,-4.6335,-4.6347,-4.6199,-4.6199,-4.6199,0,-4.5938,-4.5987,-4.5971,-4.601,-4.6024,-4.599,-4.6037,-4.6046,-4.6067,-4.6077,-4.6052,-4.6109,-4.6114,-4.6173,-4.6196,-4.6206,-4.6217,-4.6191,-4.6291,-4.6301,-4.631,-4.6342,-4.6354,-4.6203,-4.6202,-4.6202,-4.6202,0,-4.6046,-4.6081,-4.6116,-4.6139,-4.6157,-4.6199,-4.6188,-4.6208,-4.6193,-4.619,-4.6237,-4.6242,-4.6267,-4.628,-4.6265,-4.6337,-4.6323,-4.6295,-4.6251,-4.6328,-4.6357,-4.6369,-4.6208,-4.6207,-4.6206,-4.6205,0,0,-4.6172,-4.6185,-4.6198,-4.6208,-4.622,-4.6246,-4.6286,-4.6311,-4.6329,-4.6344,-4.6376,-4.6416,-4.6391,-4.6403,-4.6389,-4.6418,-4.6492,-4.6387,-4.6387,-4.6406,-4.6571,-4.6592,-4.6606,-4.6476,-4.6478,-4.648,-4.657,0,-4.6262,-4.6334,-4.632,-4.6389,-4.642,-4.6388,-4.6423,-4.6434,-4.6431,-4.6456,-4.6453,-4.6481,-4.6446,-4.6453,-4.6481,-4.6478,-4.6525,-4.6471,-4.6506,-4.6507,-4.6504,-4.6621,-4.6643,-4.6728,-4.6581,-4.6583,-4.6585,0,-4.6377,-4.6397,-4.647,-4.6478,-4.649,-4.6522,-4.6544,-4.6569,-4.658,-4.6575,-4.6589,-4.657,-4.6609,-4.6564,-4.6617,-4.6581,-4.6594,-4.6595,-4.6597,-4.66,-4.6551,-4.6627,-4.6754,-4.6767,-4.6602,-4.6601,-4.66,0,-4.6461,-4.6507,-4.6557,-4.6566,-4.6576,-4.6599,-4.6604,-4.6612,-4.6628,-4.6647,-4.6656,-4.6679,-4.6691,-4.6708,-4.6694,-4.6663,-4.6749,-4.6704,-4.6746,-4.6747,-4.6766,-4.6765,-4.6897,-4.6775,-4.6775,-4.6774,-4.6774,0,-4.6563,-4.6609,-4.6595,-4.6625,-4.6675,-4.6658,-4.6707,-4.6708,-4.6716,-4.6745,-4.6719,-4.6746,-4.6727,-4.6752,-4.6742,-4.6787,-4.6793,-4.679,-4.6787,-4.6792,-4.6793,-4.6801,-4.6794,-4.6778,-4.6777,-4.6776,-4.6776,0,-4.6666,-4.6659,-4.6711,-4.6716,-4.6718,-4.6755,-4.6759,-4.6786,-4.6782,-4.6819,-4.6826,-4.6819,-4.6848,-4.6836,-4.6866,-4.6859,-4.6917,-4.6906,-4.6914,-4.6911,-4.6954,-4.695,-4.7096,-4.7114,-4.698,-4.6981,-4.6983,0,-4.6732,-4.6767,-4.6776,-4.6794,-4.6802,-4.6831,-4.6847,-4.6831,-4.6849,-4.6865,-4.689,-4.6917,-4.6937,-4.6985,-4.6981,-4.7004,-4.6993,-4.7043,-4.6996,-4.7001,-4.6994,-4.6992,-4.6995,-4.7052,-4.7053,-4.7055,-4.7056,0,-4.6849,-4.6844,-4.6869,-4.6893,-4.6914,-4.6931,-4.6947,-4.6963,-4.6947,-4.6968,-4.6998,-4.7014,-4.7046,-4.7072,-4.7093,-4.7096,-4.7073,-4.707,-4.7081,-4.7088,-4.7091,-4.709,-4.6939,-4.7067,-4.7066,-4.7065,-4.7064,-4.7064,-4.6935,-4.6964,-4.6976,-4.7005,-4.7015,-4.703,-4.7056,-4.7055,-4.708,-4.7105,-4.7094,-4.7128,-4.7138,-4.7163,-4.7169,-4.7195,-4.7176,-4.7192,-4.7196,-4.72,-4.7206,-4.7087,-4.7199,-4.7198,-4.7198,-4.7198,-4.7198,0,-4.7051,-4.7057,-4.7084,-4.7106,-4.7129,-4.7107,-4.7122,-4.7142,-4.7173,-4.7185,-4.7206,-4.724,-4.7265,-4.7264,-4.7287,-4.7308,-4.7298,-4.7315,-4.7313,-4.7314,-4.7222,-4.721,-4.7323,-4.7323,-4.7322,-4.7322,-4.7322,-4.7322,-4.7114,-4.7162,-4.7158,-4.7211,-4.7216,-4.725,-4.7261,-4.7274,-4.7283,-4.7323,-4.7344,-4.7344,-4.735,-4.7373,-4.7396,-4.7394,-4.7404,-4.7425,-4.742,-4.7333,-4.7321,-4.7309,-4.7298,-4.7427,-4.7427,-4.751,-4.7511,-4.7511]}]]